STARLINK-30198, 57290

Orbit data source: Space-Track

STARLINK-30198, 57290 is a payload satellite owned by SpaceX/Seattle (US) in LEO that was launched on Mon, 10 Jul 2023 UTC via an FALCON 9 launch vehicle from the Air Force Eastern Test Range (AFETR). Payload-class satellites include a variety of spacecraft equipped with specific instruments for various scientific and technological missions. These include communications satellites like Starlink; space stations such as the ISS; scientific satellites like the Hubble; Earth observation satellites from companies like Planet Labs, Umbra, and HawkEye 360; GPS; miniature CubeSats for education and research; and military/defense satellites.

Loading next visibility...
Identifier
57290, 2023-096A
Orbit
LEO
Country
Flag of USUS
Related business
Manufacturer
SpaceX/Seattle
Mission
Operational Commercial Communications
Bus & Motor
STARLINK V2M, Unknown motor
Mass
730 kg wet, ~700 kg dry
Launch date (UTC)
2023-07-10 (2 years ago)
Launch vehicle
FALCON 9
Launch site
Air Force Eastern Test Range (AFETR)
Object type
Payload
Rocket body
Debris
Shape & HBR
Box + 2 Pan, 17.7 m
Radar Cross Section
33.884 m², Large (>1 m²)

Expand to show TLE details & history
Last TLE update: 1 day ago

TLE from 1 day ago
0 STARLINK-30198
1 57290U 23096A   25340.49240149  .00000082  00000-0  21117-4 0  9996
2 57290  43.0044   9.9577 0001129 266.0398  94.0315 15.02542060133592
Epoch: 2025-12-06T11:49Z
TLE epoch observation values (Epoch: 2025-12-06T11:49:03.488Z)
Latitude
-0.00005°
Longitude
117.17375°
Altitude
558.894 km
Speed
7.584 km/s
True Right ascension
00h 39m 49s
True Declination
0° 00' 00"
Sunlit
Object was in full shadow at epoch
Visualization orbit readout
Latitude
Unknown
Longitude
Unknown
Altitude
Unknown
Speed
Unknown
Apparent Right ascension
Unknown
Apparent Declination
Unknown
Sunlit
N/A
Visualization observer readout
Local Sidereal Time
12:21:31
Azimuth
Unknown
Elevation
Unknown
Doppler factor
Unknown
Orbital elements
Apogee altitude
561.768 km
Perigee altitude
560.201 km
Semi-major axis
6,939.121 km
Eccentricity
0.00011
Inclination
43.0044°
RAAN
9.9577°
Arg. of periapsis
266.0398°
True anomaly
94.04441°
Mean anomaly
94.0315°
Eccentric anomaly
94.03795°
Mean motion
3.7548 °/min
Orbital period
95.88 mins
BSTAR
0.000021117
Loading maneuver chart data...
Computing Atmospheric mass density...
Loading historical data...
Loading historical data...
Loading historical data...
Loading historical data...
Loading historical data...
Loading historical data...
Loading historical data...

Documentation

Showing up to 5 results
|